Christmas Island, Christmas Island

4:44 PM +07 on September 20, 2017 (GMT +0700)
Christmas Island

Weather History for YPXM - December, 2012

Change the Weather History Date:

Sunday, December 16, 2012

  Actual Average Record
Temperature  
Mean Temperature 76 °F -  
Max Temperature 81 °F 79 °F 84 °F (2014)
Min Temperature 72 °F 71 °F 69 °F (1996)
Cooling Degree Days 12    
Growing Degree Days 26 (Base 50)    
Moisture  
Dew Point 75 °F    
Average Humidity 95    
Maximum Humidity 100    
Minimum Humidity 79    
Precipitation  
Precipitation 1.26 in - - ()
Sea Level Pressure  
Sea Level Pressure 29.83 in    
Wind  
Wind Speed 6 mph ()    
Max Wind Speed 10 mph    
Max Gust Speed -    
Visibility 4.4 miles    
Events Rain    
Averages and records for this station are not official NWS values.
T = Trace of Precipitation, MM = Missing Value Source: Averaged Metar Reports

Daily Weather History Graph

Daily Weather History Graph

Search for Another Location

Airport or City:

Trip Planner

Search our weather history database for the weather conditions in past years. The results will help you decide how hot, cold, wet, or windy it might be!

Date:

Astronomy

Dec. 16, 2012 Rise Set
Actual Time 5:30 AM +07 6:15 PM +07
Civil Twilight 5:07 AM +07 6:38 PM +07
Nautical Twilight 4:40 AM +07 7:05 PM +07
Astronomical Twilight 4:13 AM +07 7:32 PM +07
Moon 8:18 AM +07 (12/16) 9:07 PM +07 (12/16)
Length of Visible Light 13h 30m
Length of Day
12h 44m
Waxing Crescent, 12% of the Moon is Illuminated
Dec 16
Waxing Crescent
Dec 20
First Quarter
Dec 28
Full
Jan 5
Last Quarter
Jan 12
New

Hourly Weather History & Observations

Time (+07) Temp. Heat Index Dew Point Humidity Pressure Visibility Wind Dir Wind Speed Gust Speed Precip Events Conditions
12:00 AM 77 °F - 75 °F 90% 29.81 in - SE 10.4 mph - -   Overcast
12:00 AM 77.0 °F - 75.2 °F 94% 29.86 in 6.2 mi SE 10.4 mph - N/A   Mostly Cloudy
12:27 AM 77.0 °F - 75.2 °F 94% 29.83 in 6.2 mi SE 10.4 mph - N/A   Mostly Cloudy
12:34 AM 77.0 °F - 75.2 °F 94% 29.83 in 6.2 mi SE 9.2 mph - N/A   Mostly Cloudy
1:00 AM 77 °F - 74 °F 89% 29.79 in - SE 10.4 mph - -  
1:00 AM 77.0 °F - 75.2 °F 94% 29.83 in 6.2 mi SE 10.4 mph - N/A   Mostly Cloudy
2:00 AM 77.0 °F - 75.2 °F 94% 29.83 in 6.2 mi SSE 8.1 mph - N/A Rain Light Rain Showers
3:00 AM 77 °F - 74 °F 90% 29.78 in - SE 10.4 mph - -   Overcast
3:00 AM 77.0 °F - 75.2 °F 94% 29.83 in 6.2 mi SE 10.4 mph - N/A   Overcast
3:35 AM 77.0 °F - 75.2 °F 94% 29.80 in 6.2 mi SE 5.8 mph - N/A   Mostly Cloudy
3:53 AM 77.0 °F - 75.2 °F 94% 29.83 in 6.2 mi SSE 5.8 mph - N/A   Mostly Cloudy
3:56 AM 77.0 °F - 75.2 °F 94% 29.83 in 6.2 mi SE 5.8 mph - N/A   Mostly Cloudy
4:00 AM 77 °F - 75 °F 92% 29.79 in - SE 6.9 mph - -  
4:00 AM 77.0 °F - 75.2 °F 94% 29.83 in 6.2 mi SE 6.9 mph - N/A   Overcast
4:17 AM 75.2 °F - 73.4 °F 94% 29.83 in 3.7 mi ESE 9.2 mph - N/A   Overcast
4:22 AM 75.2 °F - 73.4 °F 94% 29.83 in 0.4 mi East 8.1 mph - N/A   Overcast
4:29 AM 73.4 °F - 73.4 °F 100% 29.83 in 0.2 mi East 9.2 mph - N/A Rain Rain
4:57 AM 73.4 °F - 71.6 °F 94% 29.83 in 6.2 mi ENE 1.2 mph - N/A Rain Light Rain Showers
5:00 AM 73.4 °F - 71.6 °F 94% 29.83 in 6.2 mi East 2.3 mph - N/A Rain Rain Showers
6:00 AM 74 °F - 73 °F 97% 29.79 in - South 1.2 mph - -  
6:00 AM 75.2 °F - 73.4 °F 94% 29.83 in - South 1.2 mph - N/A Rain Light Rain Showers
7:00 AM 75 °F - 74 °F 96% 29.81 in - Calm Calm - -  
7:00 AM 75.2 °F - 73.4 °F 94% 29.83 in 6.2 mi Calm Calm - N/A Rain Light Rain
7:21 AM 75.2 °F - 75.2 °F 100% 29.86 in 4.3 mi East 5.8 mph - N/A Rain Light Rain
7:24 AM 75.2 °F - 75.2 °F 100% 29.86 in - East 5.8 mph - N/A Rain Light Rain
7:31 AM 75.2 °F - 75.2 °F 100% 29.86 in 0.4 mi East 5.8 mph - N/A Rain Light Rain
7:51 AM 75.2 °F - 75.2 °F 100% 29.86 in 0.3 mi ESE 5.8 mph - N/A   Drizzle
7:54 AM 75.2 °F - 75.2 °F 100% 29.86 in 0.9 mi East 5.8 mph - N/A   Drizzle
8:00 AM 75.2 °F - 75.2 °F 100% 29.86 in 1.2 mi East 4.6 mph - N/A   Drizzle
8:15 AM 75.2 °F - 73.4 °F 94% 29.86 in - ESE 4.6 mph - N/A   Overcast
8:20 AM 75.2 °F - 73.4 °F 94% 29.86 in - East 3.5 mph - N/A Rain Light Rain
9:00 AM 77 °F - 75 °F 92% 29.83 in - SE 4.6 mph - -   Overcast
9:00 AM 77.0 °F - 75.2 °F 94% 29.86 in 6.2 mi SE 4.6 mph - N/A   Overcast
10:00 AM 78 °F - 75 °F 86% 29.83 in - East 5.8 mph - -  
10:03 AM 78.8 °F - 75.2 °F 89% 29.86 in 6.2 mi East 5.8 mph - N/A   Mostly Cloudy
10:20 AM 78.8 °F - 75.2 °F 89% 29.86 in 6.2 mi ESE 5.8 mph - N/A   Overcast
10:23 AM 78.8 °F - 73.4 °F 83% 29.86 in 6.2 mi ESE 5.8 mph - N/A   Overcast
10:43 AM 80.6 °F 86.2 °F 75.2 °F 84% 29.86 in 6.2 mi SE 6.9 mph - N/A   Overcast
11:00 AM 80.6 °F 86.2 °F 75.2 °F 84% 29.86 in 6.2 mi ESE 5.8 mph - N/A   Overcast
11:12 AM 80.6 °F 85.4 °F 73.4 °F 79% 29.86 in 6.2 mi ESE 5.8 mph - N/A   Overcast
12:00 PM 78 °F - 75 °F 89% 29.81 in - SE 6.9 mph - -   Overcast
12:00 PM 78.8 °F - 75.2 °F 89% 29.83 in 6.2 mi SE 6.9 mph - N/A   Mostly Cloudy
12:10 PM 78.8 °F - 75.2 °F 89% 29.83 in 6.2 mi SE 5.8 mph - N/A   Mostly Cloudy
1:00 PM 77 °F - 76 °F 95% 29.79 in - ENE 8.1 mph - -  
1:00 PM 77.0 °F - 75.2 °F 94% 29.83 in 0.7 mi ENE 8.1 mph - N/A Rain Heavy Rain Showers
1:25 PM 77.0 °F - 75.2 °F 94% 29.83 in 6.2 mi East 8.1 mph - N/A   Overcast
2:00 PM 77.0 °F - 75.2 °F 94% 29.83 in 3.7 mi SSW 4.6 mph - N/A Rain Heavy Rain
2:16 PM 77.0 °F - 75.2 °F 94% 29.80 in 3.7 mi Calm Calm - N/A Rain Heavy Rain
2:26 PM 77.0 °F - 75.2 °F 94% 29.80 in 6.2 mi SW 1.2 mph - N/A   Mostly Cloudy
3:00 PM 77 °F - 76 °F 95% 29.76 in - SSW 2.3 mph - -   Overcast
3:00 PM 77.0 °F - 75.2 °F 94% 29.80 in 6.2 mi SSW 2.3 mph - N/A Rain Light Rain Showers
4:00 PM 79 °F - 75 °F 85% 29.75 in - East 4.6 mph - -  
4:02 PM 78.8 °F - 75.2 °F 89% 29.80 in 6.2 mi ENE 4.6 mph - N/A Rain Light Rain Showers
4:08 PM 77.0 °F - 75.2 °F 94% 29.80 in 3.7 mi NE 3.5 mph - N/A Rain Heavy Rain Showers
4:16 PM 77.0 °F - 75.2 °F 94% 29.80 in 3.1 mi East 4.6 mph - N/A Rain Heavy Rain Showers
4:28 PM 77.0 °F - 75.2 °F 94% 29.80 in 6.2 mi ESE 3.5 mph - N/A Rain Light Rain Showers
4:51 PM 77.0 °F - 75.2 °F 94% 29.80 in 5.0 mi South 2.3 mph - N/A Rain Rain Showers
4:58 PM 77.0 °F - 75.2 °F 94% 29.80 in 6.2 mi SSE 3.5 mph - N/A Rain Rain Showers
5:00 PM 77.0 °F - 75.2 °F 94% 29.80 in 6.2 mi SSE 3.5 mph - N/A Rain Light Rain Showers
5:27 PM 77.0 °F - 75.2 °F 94% 29.80 in 3.7 mi SE 3.5 mph - N/A   Overcast
6:00 PM 76 °F - 75 °F 94% 29.78 in - SSW 3.5 mph - -  
6:00 PM 75.2 °F - 75.2 °F 100% 29.80 in 6.2 mi SSW 3.5 mph - N/A   Overcast
6:03 PM 75.2 °F - 75.2 °F 100% 29.83 in - SSW 4.6 mph - N/A   Overcast
6:10 PM 75.2 °F - 75.2 °F 100% 29.83 in 0.6 mi SSW 4.6 mph - N/A   Overcast
6:24 PM 75.2 °F - 75.2 °F 100% 29.83 in 0.8 mi SW 3.5 mph - N/A   Overcast
6:40 PM 75.2 °F - 75.2 °F 100% 29.83 in 6.2 mi WSW 3.5 mph - N/A   Overcast
7:00 PM 75 °F - 73 °F 93% 29.80 in - WSW 4.6 mph - -  
7:00 PM 75.2 °F - 73.4 °F 94% 29.83 in 6.2 mi WSW 4.6 mph - N/A   Overcast
8:00 PM 75.2 °F - 73.4 °F 94% 29.86 in 6.2 mi WSW 2.3 mph - N/A   Overcast
9:00 PM 75 °F - 74 °F 95% 29.83 in - WSW 4.6 mph - -   Overcast
9:00 PM 75.2 °F - 73.4 °F 94% 29.86 in 6.2 mi WSW 4.6 mph - N/A   Overcast
9:06 PM 75.2 °F - 75.2 °F 100% 29.86 in 3.1 mi SW 5.8 mph - N/A   Overcast
9:08 PM 75.2 °F - 75.2 °F 100% 29.86 in - SW 4.6 mph - N/A   Overcast
10:00 PM 75 °F - 75 °F 99% 29.85 in - Calm Calm - -  
10:00 PM 75.2 °F - 75.2 °F 100% 29.89 in 4.3 mi Calm Calm - N/A Rain Light Rain
10:01 PM 75.2 °F - 75.2 °F 100% 29.89 in 3.7 mi Calm Calm - N/A Rain Light Rain
10:09 PM 75.2 °F - 75.2 °F 100% 29.89 in 0.4 mi SSE 2.3 mph - N/A Rain Light Rain
10:14 PM 75.2 °F - 75.2 °F 100% 29.89 in 0.3 mi SSE 3.5 mph - N/A Rain Light Rain
10:15 PM 75.2 °F - 75.2 °F 100% 29.89 in 0.2 mi SSE 3.5 mph - N/A Rain Light Rain
10:17 PM 75.2 °F - 75.2 °F 100% 29.89 in 0.3 mi SSE 3.5 mph - N/A Rain Light Rain
10:18 PM 75.2 °F - 75.2 °F 100% 29.89 in 0.3 mi SSE 3.5 mph - N/A Rain Light Rain
10:50 PM 75.2 °F - 75.2 °F 100% 29.86 in 3.1 mi SSE 2.3 mph - N/A   Light Drizzle
11:00 PM 75.2 °F - 75.2 °F 100% 29.86 in - Calm Calm - N/A   Light Drizzle
11:16 PM 75.2 °F - 75.2 °F 100% 29.86 in 6.2 mi South 1.2 mph - N/A   Mostly Cloudy
11:27 PM 75.2 °F - 75.2 °F 100% 29.86 in 6.2 mi Calm Calm - N/A   Mostly Cloudy